Location: Laguna de la Cañada del Gallo
(40.3974°N, 5.2096°W)
Time: 06:11:56
(UTC+00:00)

Cosmos 1656 - Visible Passes

Search period start: 15 July 2024 00:00
Search period end: 25 July 2024 00:00
Orbit: 797 x 848 km, 71.1° (Epoch: 14 July)

Date Brightness Start Highest point End Pass type
(mag) Time Alt. Az. Time Alt. Az. Time Alt. Az.
15 Jul 4.5 02:18:31 31° SSE 02:20:19 40° ESE 02:25:25 10° NE visible
15 Jul 4.9 03:59:57 12° WSW 04:04:02 28° NW 04:08:44 10° N visible
16 Jul 4.6 01:58:24 30° SE 01:59:37 34° ESE 02:04:31 10° NE visible
16 Jul 4.7 03:39:49 17° WSW 03:43:11 32° WNW 03:48:07 10° N visible
17 Jul 4.9 01:38:14 28° ESE 01:38:56 29° ESE 01:43:35 10° NE visible
17 Jul 4.5 03:19:39 23° WSW 03:22:22 37° WNW 03:27:29 10° N visible
18 Jul 5.1 01:18:03 24° ESE 01:18:15 24° ESE 01:22:35 10° NE visible
18 Jul 4.2 02:59:27 30° WSW 03:01:33 44° WNW 03:06:49 10° N visible
19 Jul 5.4 00:57:49 20° E 00:57:49 20° E 01:01:32 10° NE visible
19 Jul 4.0 02:39:14 40° WSW 02:40:45 51° WNW 02:46:08 10° NNE visible
20 Jul 5.6 00:37:34 17° E 00:37:34 17° E 00:40:23 10° ENE visible
20 Jul 3.8 02:18:58 52° WSW 02:19:57 60° WNW 02:25:26 10° NNE visible
21 Jul 5.8 00:17:17 14° E 00:17:17 14° E 00:19:05 10° ENE visible
21 Jul 3.5 01:58:41 67° WSW 01:59:10 71° WNW 02:04:43 10° NNE visible
21 Jul 5.9 03:42:01 10° WNW 03:43:51 12° NW 03:45:42 10° NNW visible
21 Jul 6.0 23:56:58 11° E 23:56:58 11° E 23:57:27 10° ENE visible
22 Jul 3.5 01:38:22 84° WNW 01:38:24 84° WNW 01:43:58 10° NNE visible
22 Jul 5.8 03:20:18 10° WNW 03:22:56 13° NW 03:25:34 10° NNW visible
23 Jul 3.6 01:18:01 77° NE 01:18:01 77° NE 01:23:12 10° NNE visible
23 Jul 5.7 02:59:26 12° W 03:02:00 15° NW 03:05:14 10° NNW visible
24 Jul 3.9 00:57:39 62° ENE 00:57:39 62° ENE 01:02:25 10° NNE visible
24 Jul 5.5 02:39:03 15° WNW 02:41:06 18° NW 02:44:49 10° N visible
